CPA237 VHHH-EGLL

Flight info

Callsign CPA237
Flight time N/A
Altitude 34100
Route BEKOL A461 SHL W22 TEPID W24 OSNOV G586 QP B330 ELKAL W179 IGNAK/K0933S1070 W179 WFX/K0933S1040 W179 OMBON W195 VIDEK/K0915S1070 W195 LAXAL/K0911S1040 W195 IGDOB/K0911S1100 W195 IDOPA W197 ANDIM B215 IBANO G470 AKLAS W192 FKG A368 SARIN/K0902F360 N161 GOMAL/K0898F380 N161 GASBI/N0488F380 N161 LEYLA T916 SUBUT/N0489F400 T916 MATAL DCT REBLO UR317 TBN UM11 CRM UL746 ODERO DCT OPT DCT TEGRI DCT GAZDA DCT ARSIN DCT PEROL DCT RENKA DCT INBED DCT BOMBI DCT DENUT L608 LOGAN
Aircraft A359/H-SDE2E3GHIJ3J4J5LM1ORWXY/LB1D1

Departure

Time N/A
Airport Hong Kong International Airport (VHHH)

Arrival

Time 2026-05-04 10:20
Airport London Heathrow Airport (EGLL)
Time Latitude Longitude Altitude Speed Heading
2026-05-04 09:27 46.64825 19.90162 40165 ft 484 kts 296°
2026-05-04 09:28 46.75945 19.54417 40158 ft 483 kts 295°
2026-05-04 09:28 46.85088 19.24679 40152 ft 482 kts 295°
2026-05-04 09:29 46.97602 18.82930 40139 ft 480 kts 295°
2026-05-04 09:29 47.08193 18.47028 40132 ft 479 kts 294°
2026-05-04 09:30 47.16973 18.16862 40124 ft 478 kts 294°
2026-05-04 09:30 47.27214 17.81011 40106 ft 477 kts 293°
2026-05-04 09:31 47.37480 17.44930 40102 ft 476 kts 293°
2026-05-04 09:31 47.47560 17.08763 40089 ft 476 kts 292°
2026-05-04 09:32 47.57546 16.72449 40084 ft 474 kts 292°
2026-05-04 09:34 48.00823 15.29460 40046 ft 473 kts 292°
2026-05-04 09:34 48.11319 14.93410 40041 ft 473 kts 292°
2026-05-04 09:35 48.21715 14.57169 40042 ft 473 kts 291°
2026-05-04 09:35 48.33534 14.22066 40048 ft 474 kts 296°
2026-05-04 09:37 48.81527 12.79811 40030 ft 478 kts 294°
2026-05-04 09:38 48.93157 12.43237 40029 ft 479 kts 294°
2026-05-04 09:38 49.04609 12.06689 40038 ft 479 kts 293°
2026-05-04 09:39 49.15995 11.69806 40044 ft 479 kts 293°
2026-05-04 09:39 49.27179 11.33042 40043 ft 479 kts 292°
2026-05-04 09:40 49.38328 10.95835 40053 ft 479 kts 292°
2026-05-04 09:40 49.50131 10.59072 40037 ft 479 kts 293°
2026-05-04 09:42 49.96220 9.11451 40025 ft 477 kts 292°
2026-05-04 09:43 50.06324 8.77873 40020 ft 476 kts 291°
2026-05-04 09:43 50.16061 8.39568 40032 ft 476 kts 289°
2026-05-04 09:44 50.25752 8.00959 40015 ft 478 kts 288°
2026-05-04 09:46 50.44920 7.22500 40005 ft 480 kts 287°
2026-05-04 09:46 50.49609 7.02872 40004 ft 480 kts 287°
2026-05-04 09:47 50.54231 6.83347 39991 ft 481 kts 287°
2026-05-04 09:49 50.72266 6.05422 39992 ft 482 kts 286°
2026-05-04 09:51 50.95761 4.99391 40008 ft 489 kts 285°
2026-05-04 09:51 51.04536 4.58341 40014 ft 491 kts 285°
2026-05-04 09:52 51.13188 4.17038 40014 ft 492 kts 285°
2026-05-04 09:52 51.21652 3.75790 39989 ft 493 kts 285°
2026-05-04 09:52 51.27227 3.55914 39997 ft 498 kts 297°
2026-05-04 09:53 51.34242 3.36667 39994 ft 497 kts 294°
2026-05-04 09:53 51.38273 3.21277 40002 ft 494 kts 289°
2026-05-04 09:54 51.40718 3.10981 40008 ft 494 kts 288°
2026-05-04 09:54 51.43134 3.00658 40010 ft 494 kts 288°
2026-05-04 09:55 51.45535 2.90356 40009 ft 493 kts 288°
2026-05-04 09:55 51.47923 2.80097 40011 ft 493 kts 288°
2026-05-04 09:56 51.50314 2.69796 39714 ft 490 kts 288°
2026-05-04 09:56 51.51501 2.64670 39012 ft 490 kts 288°
2026-05-04 09:56 51.52687 2.59528 38102 ft 492 kts 288°
2026-05-04 09:56 51.53872 2.54383 37189 ft 491 kts 287°
2026-05-04 09:57 51.55050 2.49252 36468 ft 489 kts 287°
2026-05-04 09:57 51.56228 2.44126 35783 ft 488 kts 286°
2026-05-04 09:57 51.57395 2.39008 35067 ft 487 kts 286°
2026-05-04 09:57 51.58555 2.33897 34315 ft 486 kts 285°
2026-05-04 09:58 51.59710 2.28805 33424 ft 485 kts 285°
2026-05-04 09:58 51.60857 2.23697 32567 ft 485 kts 285°
2026-05-04 09:58 51.62003 2.18566 31701 ft 487 kts 285°
2026-05-04 10:00 51.69852 1.83395 26427 ft 460 kts 285°
2026-05-04 10:00 51.70922 1.78566 25785 ft 455 kts 286°
2026-05-04 10:02 51.73992 1.48365 23595 ft 388 kts 262°
2026-05-04 10:04 51.71964 1.18195 19150 ft 380 kts 262°
2026-05-04 10:04 51.71680 1.13969 18582 ft 378 kts 262°
2026-05-04 10:04 51.71395 1.09746 17957 ft 377 kts 262°
2026-05-04 10:04 51.71114 1.05607 17392 ft 374 kts 262°
2026-05-04 10:05 51.70830 1.01455 16828 ft 370 kts 262°
2026-05-04 10:05 51.70549 0.97351 16303 ft 366 kts 262°
2026-05-04 10:05 51.70271 0.93308 16045 ft 361 kts 262°
2026-05-04 10:05 51.69993 0.89274 16018 ft 362 kts 262°
2026-05-04 10:06 51.69711 0.85242 16017 ft 362 kts 262°
2026-05-04 10:06 51.69428 0.81210 16018 ft 362 kts 262°
2026-05-04 10:06 51.69143 0.77159 16021 ft 362 kts 262°
2026-05-04 10:08 51.67452 0.53502 13725 ft 333 kts 262°
2026-05-04 10:08 51.67188 0.49861 13498 ft 323 kts 262°
2026-05-04 10:08 51.66933 0.46334 13201 ft 306 kts 262°
2026-05-04 10:08 51.66692 0.43036 12801 ft 287 kts 262°
2026-05-04 10:09 51.66461 0.39929 12350 ft 274 kts 262°
2026-05-04 10:09 51.66238 0.36926 11781 ft 267 kts 262°
2026-05-04 10:09 51.66018 0.33980 11192 ft 263 kts 262°
2026-05-04 10:09 51.65801 0.31081 10602 ft 259 kts 262°
2026-05-04 10:10 51.65586 0.28206 10002 ft 256 kts 262°
2026-05-04 10:10 51.65372 0.25372 9338 ft 254 kts 262°
2026-05-04 10:10 51.65116 0.22555 8567 ft 255 kts 256°
2026-05-04 10:10 51.64360 0.20004 7808 ft 254 kts 231°
2026-05-04 10:11 51.63115 0.17970 7081 ft 255 kts 223°
2026-05-04 10:11 51.61790 0.16109 6345 ft 256 kts 221°
2026-05-04 10:11 51.60438 0.14246 5547 ft 256 kts 221°
2026-05-04 10:11 51.59085 0.12379 4806 ft 256 kts 221°
2026-05-04 10:12 51.57738 0.10508 4038 ft 256 kts 221°
2026-05-04 10:12 51.56402 0.08631 3373 ft 252 kts 223°
2026-05-04 10:12 51.55249 0.06607 3034 ft 238 kts 233°
2026-05-04 10:12 51.54337 0.04281 3012 ft 257 kts 240°
2026-05-04 10:13 51.53477 0.01731 2947 ft 255 kts 242°
2026-05-04 10:13 51.52687 -0.00743 2827 ft 244 kts 243°
2026-05-04 10:13 51.51951 -0.03102 2688 ft 234 kts 243°
2026-05-04 10:13 51.51236 -0.05418 2550 ft 225 kts 243°
2026-05-04 10:14 51.50569 -0.07593 2491 ft 212 kts 243°
2026-05-04 10:14 51.49942 -0.09643 2498 ft 196 kts 244°
2026-05-04 10:16 51.47783 -0.22353 2494 ft 158 kts 270°
2026-05-04 10:16 51.47794 -0.24097 2496 ft 153 kts 271°
2026-05-04 10:16 51.47807 -0.25230 2392 ft 154 kts 271°
2026-05-04 10:16 51.47805 -0.27502 2085 ft 149 kts 270°
2026-05-04 10:17 51.47798 -0.29099 1916 ft 142 kts 270°
2026-05-04 10:17 51.47797 -0.30151 1803 ft 139 kts 271°
2026-05-04 10:19 51.47766 -0.41044 422 ft 140 kts 272°
2026-05-04 10:19 51.47761 -0.42596 223 ft 139 kts 274°
2026-05-04 10:19 51.47757 -0.44118 100 ft 136 kts 272°
2026-05-04 10:19 51.47763 -0.45485 93 ft 93 kts 269°
2026-05-04 10:20 51.47760 -0.46133 96 ft 40 kts 269°
2026-05-04 10:20 51.47750 -0.46500 95 ft 31 kts 259°
2026-05-04 10:20 51.47680 -0.46780 96 ft 11 kts 244°
2026-05-04 10:20 51.47629 -0.46878 97 ft 10 kts 213°
2026-05-04 10:21 51.47551 -0.46923 96 ft 12 kts 187°
2026-05-04 10:21 51.47476 -0.46898 96 ft 10 kts 177°
2026-05-04 10:21 51.47394 -0.46883 96 ft 13 kts 168°
2026-05-04 10:21 51.47292 -0.46867 93 ft 16 kts 180°
2026-05-04 10:22 51.47071 -0.46855 95 ft 12 kts 156°
2026-05-04 10:22 51.47048 -0.46752 96 ft 11 kts 104°
2026-05-04 10:22 51.46999 -0.46673 94 ft 5 kts 145°
2026-05-04 10:23 51.46998 -0.46671 95 ft 0 kts 146°
2026-05-04 10:23 51.46989 -0.46649 97 ft 6 kts 116°
2026-05-04 10:25 51.47018 -0.46538 95 ft 0 kts 56°